Hourly Data Report for May 28, 2012

All times are specified in Local Standard Time (LST). Add 1 hour to adjust for Daylight Saving Time where and when it is observed.

ST. JOHN'S INTL A
NEWFOUNDLAND

47°37'07.000" N
52°45'09.000" W
140.50 m
8403505
71801
YYT

Download Data

Hourly Data (May 2012)
Hourly Data Report for May 28, 2012
Temp Definition
°C
Dew Point Temp Definition
°C
Rel Hum Definition
%
Wind Dir Definition
10's deg

Wind Spd Definition
km/h
Visibility Definition
km
Stn Press Definition
kPa
Hmdx Definition


Wind Chill Definition


Weather Definition


TIME
00:30 0.0 -1.3 91 30 11 10.0 99.81   -4 LegendNANA
01:30 0.8 -0.8 89 29 14 10.0 99.79     LegendNANA
02:30 1.2 -0.1 91 30 9 10.0 99.74     Mostly Cloudy
03:30 0.6 -0.4 93 34 6 10.0 99.73     LegendNANA
04:30 0.7 -0.2 94 31 9 10.0 99.77     LegendNANA
05:30 1.9 0.4 90 31 7 10.0 99.83     Mostly Cloudy
06:30 2.9 1.0 87 32 10 10.0 99.85     LegendNANA
07:30 3.5 0.4 80 31 11 10.0 99.84     LegendNANA
08:30 4.7 -0.5 69 32 7 10.0 99.84     Mostly Cloudy
09:30 5.7 -0.8 63   0 10.0 99.77     LegendNANA
10:30 6.5 -1.9 55 19 4 10.0 99.72     LegendNANA
11:30 6.5 -1.2 58 17 10 10.0 99.67     Mostly Cloudy
12:30 6.7 -0.5 60 12 11 10.0 99.64     LegendNANA
13:30 6.1 -0.4 63 11 24 10.0 99.61     LegendNANA
14:30 5.2 -1.1 64 14 24 10.0 99.60     Cloudy
15:30 4.9 -0.3 69 13 22 10.0 99.56     Snow Showers
16:30 5.3 2.3 81 22 17 10.0 99.56     Rain Showers
17:30 4.6 2.5 86 19 17 10.0 99.53     Rain Showers
18:30 3.8 3.1 95 15 8 10.0 99.52     Rain Showers
19:30 3.0 2.6 97 14 5 10.0 99.54     Rain Showers
20:30 0.5 0.2 98 5 17 6.4 99.60     Snow Showers,Fog
21:30 0.2 0.1 99 5 16 1.2 99.63     Snow Showers,Fog
22:30 0.5 0.5 100 5 21 1.2 99.60     Snow Showers,Fog
23:30 0.7 0.7 100 2 11 8.1 99.64     Snow Showers,Fog

Notes on Data Quality.

Legend

  • E = Estimated
  • M = Missing
  • NA = Not Available
Date modified: